Погода в Ратчабури

Таиланд     13°32′52″N   99°49′26″E
темп.,
°C
ветер,
м/с
пор.,
м/с
влажн.,
%
обл.,
%
осадки,
мм/ч
давл.,
гПа
погр.,
м
7 марта, вс
вс701:00+25юз12710 0.0 101225
04:00+23ююв11760 0.0 101123
07:00+23ююв017724 0.0 101223
10:00+33всв113940 0.0 1014705
13:00+37вюв432720 0.0 10112359
16:00+36вюв65310 0.0 10091277
19:00+28ююв59671 0.0 1010379
22:00+27ю38720 0.0 1013200
8 марта, пн
пн801:00+25ююз126813 0.0 101227
04:00+24вюв11770 0.0 101124
07:00+24з00710 0.0 101323
10:00+33в11390 0.0 1015744
13:00+36вюв53330 0.0 10122183
16:00+34вюв664412 0.0 10091101
19:00+28юв59686 0.0 1011451
22:00+26ююв24780 0.0 1014144
9 марта, вт
вт901:00+25ю12770 0.0 101329
04:00+24зюз11780 0.0 101124
07:00+25зсз11660 0.0 101325
10:00+32вюв22440 0.0 1015828
13:00+36вюв43370 0.0 10122082
16:00+35вюв644033 0.0 10091570
19:00+28юв6106916 0.0 1011452
22:00+26ю36790 0.0 1013198
10 марта, ср
ср1001:00+25юв11810 0.0 101327
04:00+25з23750 0.0 101153
07:00+25зюз12701 0.2 101336
10:00+33в22420 0.2 1014865
13:00+36вюв64376 0.2 10111928
16:00+35вюв543752 0.0 10091481
19:00+29юв595826 0.2 1010343
22:00+27ю23680 0.1 101375
11 марта, чт
чт1101:00+25юв11730 0.1 101227
04:00+25зсз35694 0.0 101095
07:00+25зюз11682 0.0 101227
10:00+33в22432 0.0 1014976
13:00+36вюв54348 0.0 10112085
16:00+35вюв643718 0.0 10091501
19:00+29юв48609 0.0 1010280
22:00+27ю36690 0.0 1012171